• In France
  • List of Countries
  • For 7 days
  • Water Temperature
  • Satellite Maps
  • Weather Map
  • Weather Widgets
  • user-avatar
    Login

    Hourly Weather Kalat

    Today, 20 November, Monday

    Time Temperature Precipitation Wind Pressure Humidity
    00:00 -10°C° 0 mm 1 mps 471 mmHg 45%
    01:00 -10°C° 0 mm 1 mps 471 mmHg 45%
    02:00 -10°C° 0 mm 1 mps 471 mmHg 45%
    03:00 -10°C° 0 mm 1 mps 471 mmHg 43%
    04:00 -11°C° 0 mm 1 mps 471 mmHg 42%
    05:00 -11°C° 0 mm 1 mps 470 mmHg 41%
    06:00 -11°C° 0 mm 1 mps 471 mmHg 39%
    07:00 -11°C° 0 mm 1 mps 471 mmHg 37%
    08:00 -10°C° 0 mm 1 mps 471 mmHg 35%
    09:00 -9°C° 0 mm 1 mps 472 mmHg 29%
    10:00 -8°C° 0 mm 1 mps 473 mmHg 23%
    11:00 -6°C° 0 mm 1 mps 474 mmHg 16%
    12:00 -6°C° 0 mm 1 mps 474 mmHg 18%
    13:00 -6°C° 0 mm 1 mps 474 mmHg 20%
    14:00 -6°C° 0 mm 2 mps 474 mmHg 23%
    15:00 -6°C° 0 mm 1 mps 474 mmHg 27%
    16:00 -7°C° 0 mm 1 mps 473 mmHg 31%
    17:00 -8°C° 0 mm 1 mps 472 mmHg 35%
    18:00 -9°C° 0 mm 1 mps 472 mmHg 34%
    19:00 -9°C° 0 mm 1 mps 472 mmHg 34%
    20:00 -10°C° 0 mm 1 mps 472 mmHg 33%
    21:00 -10°C° 0 mm 1 mps 472 mmHg 32%
    22:00 -10°C° 0 mm 1 mps 471 mmHg 30%
    23:00 -10°C° 0 mm 1 mps 471 mmHg 29%

    Tomorrow, 21 November, Tuesday

    Time Temperature Precipitation Wind Pressure Humidity
    00:00 -13°C° 0 mm 2 mps 471 mmHg 28%
    01:00 -13°C° 0 mm 2 mps 471 mmHg 26%
    02:00 -13°C° 0 mm 2 mps 470 mmHg 25%
    03:00 -13°C° 0 mm 2 mps 470 mmHg 24%
    04:00 -13°C° 0 mm 2 mps 470 mmHg 23%
    05:00 -14°C° 0 mm 2 mps 470 mmHg 21%
    06:00 -13°C° 0 mm 2 mps 470 mmHg 22%
    07:00 -13°C° 0 mm 2 mps 471 mmHg 22%
    08:00 -13°C° 0 mm 2 mps 471 mmHg 22%
    09:00 -10°C° 0 mm 2 mps 472 mmHg 20%
    10:00 -7°C° 0 mm 1 mps 473 mmHg 18%
    11:00 -6°C° 0 mm 1 mps 474 mmHg 16%
    12:00 -4°C° 0 mm 1 mps 474 mmHg 16%
    13:00 -4°C° 0 mm 1 mps 474 mmHg 17%
    14:00 -3°C° 0 mm 1 mps 474 mmHg 17%
    15:00 -4°C° 0 mm 1 mps 473 mmHg 21%
    16:00 -6°C° 0 mm 1 mps 472 mmHg 25%
    17:00 -7°C° 0 mm 1 mps 471 mmHg 29%
    18:00 -8°C° 0 mm 1 mps 471 mmHg 28%
    19:00 -8°C° 0 mm 1 mps 471 mmHg 28%
    20:00 -10°C° 0 mm 2 mps 471 mmHg 27%
    21:00 -10°C° 0 mm 2 mps 471 mmHg 25%
    22:00 -10°C° 0 mm 2 mps 471 mmHg 24%
    23:00 -10°C° 0 mm 2 mps 471 mmHg 22%

    Day after tomorrow, 22 November, Wednesday

    Time Temperature Precipitation Wind Pressure Humidity
    00:00 -10°C° 0 mm 2 mps 471 mmHg 21%
    01:00 -10°C° 0 mm 2 mps 470 mmHg 20%
    02:00 -10°C° 0 mm 2 mps 470 mmHg 19%
    03:00 -12°C° 0 mm 2 mps 470 mmHg 18%
    04:00 -12°C° 0 mm 2 mps 470 mmHg 17%
    05:00 -12°C° 0 mm 2 mps 470 mmHg 17%
    06:00 -10°C° 0 mm 2 mps 470 mmHg 17%
    07:00 -10°C° 0 mm 2 mps 471 mmHg 17%
    08:00 -10°C° 0 mm 2 mps 471 mmHg 17%
    09:00 -8°C° 0 mm 2 mps 472 mmHg 16%
    10:00 -4°C° 0 mm 1 mps 474 mmHg 15%
    11:00 -2°C° 0 mm 1 mps 475 mmHg 14%
    12:00 -2°C° 0 mm 1 mps 475 mmHg 16%
    13:00 -1°C° 0 mm 1 mps 475 mmHg 17%
    14:00 -1°C° 0 mm 1 mps 475 mmHg 19%
    15:00 -2°C° 0 mm 1 mps 474 mmHg 22%
    16:00 -3°C° 0 mm 1 mps 473 mmHg 26%
    17:00 -6°C° 0 mm 1 mps 472 mmHg 29%
    18:00 -6°C° 0 mm 1 mps 472 mmHg 29%
    19:00 -7°C° 0 mm 2 mps 472 mmHg 30%
    20:00 -8°C° 0 mm 2 mps 472 mmHg 30%
    21:00 -8°C° 0 mm 2 mps 472 mmHg 28%
    22:00 -8°C° 0 mm 2 mps 472 mmHg 27%
    23:00 -8°C° 0 mm 2 mps 471 mmHg 26%

    23 November, Thursday

    Time Temperature Precipitation Wind Pressure Humidity
    00:00 -8°C° 0 mm 2 mps 471 mmHg 25%
    01:00 -9°C° 0 mm 2 mps 471 mmHg 24%
    02:00 -9°C° 0 mm 2 mps 471 mmHg 22%
    03:00 -9°C° 0 mm 2 mps 470 mmHg 21%
    04:00 -9°C° 0 mm 2 mps 470 mmHg 21%
    05:00 -9°C° 0 mm 2 mps 470 mmHg 20%
    06:00 -8°C° 0 mm 2 mps 470 mmHg 20%
    07:00 -8°C° 0 mm 2 mps 471 mmHg 20%
    08:00 -8°C° 0 mm 2 mps 471 mmHg 19%
    09:00 -6°C° 0 mm 2 mps 472 mmHg 19%
    10:00 -4°C° 0 mm 2 mps 474 mmHg 19%
    11:00 -3°C° 0 mm 2 mps 475 mmHg 18%
    12:00 -2°C° 0 mm 2 mps 475 mmHg 19%
    13:00 -2°C° 0 mm 2 mps 475 mmHg 19%
    14:00 -2°C° 0 mm 2 mps 475 mmHg 20%
    15:00 -3°C° 0 mm 2 mps 474 mmHg 25%
    16:00 -3°C° 0 mm 1 mps 473 mmHg 29%
    17:00 -4°C° 0 mm 1 mps 472 mmHg 34%
    18:00 -4°C° 0 mm 1 mps 472 mmHg 34%
    19:00 -6°C° 0 mm 2 mps 472 mmHg 34%
    20:00 -7°C° 0 mm 2 mps 472 mmHg 34%
    21:00 -7°C° 0 mm 2 mps 472 mmHg 35%
    22:00 -6°C° 0 mm 2 mps 472 mmHg 35%
    23:00 -6°C° 0 mm 2 mps 473 mmHg 36%

    24 November, Friday

    Time Temperature Precipitation Wind Pressure Humidity
    00:00 -7°C° 0 mm 2 mps 472 mmHg 37%
    01:00 -7°C° 0 mm 2 mps 472 mmHg 38%
    02:00 -7°C° 0 mm 2 mps 472 mmHg 40%
    03:00 -7°C° 0 mm 2 mps 472 mmHg 40%
    04:00 -8°C° 0 mm 2 mps 472 mmHg 41%
    05:00 -8°C° 0 mm 2 mps 471 mmHg 41%
    06:00 -8°C° 0 mm 2 mps 472 mmHg 41%
    07:00 -7°C° 0 mm 2 mps 472 mmHg 42%
    08:00 -7°C° 0 mm 2 mps 473 mmHg 42%
    09:00 -6°C° 0 mm 2 mps 474 mmHg 40%
    10:00 -2°C° 0 mm 1 mps 475 mmHg 38%
    11:00 -1°C° 0 mm 1 mps 476 mmHg 36%
    12:00 -2°C° 0 mm 2 mps 476 mmHg 37%
    13:00 -2°C° 0 mm 2 mps 476 mmHg 37%
    14:00 -2°C° 0 mm 2 mps 476 mmHg 37%
    15:00 -3°C° 0 mm 2 mps 475 mmHg 41%
    16:00 -2°C° 0 mm 1 mps 474 mmHg 45%
    17:00 -3°C° 0 mm 1 mps 473 mmHg 50%
    18:00 -3°C° 0 mm 1 mps 473 mmHg 49%
    19:00 -5°C° 0 mm 2 mps 473 mmHg 49%
    20:00 -5°C° 0 mm 2 mps 474 mmHg 49%
    21:00 -5°C° 0 mm 2 mps 474 mmHg 49%
    22:00 -6°C° 0 mm 2 mps 473 mmHg 50%
    23:00 -6°C° 0 mm 2 mps 473 mmHg 50%

    25 November, Saturday

    Time Temperature Precipitation Wind Pressure Humidity
    00:00 -6°C° 0 mm 2 mps 473 mmHg 51%
    01:00 -6°C° 0 mm 2 mps 473 mmHg 52%
    02:00 -6°C° 0 mm 2 mps 473 mmHg 53%
    03:00 -7°C° 0.1 mm 2 mps 473 mmHg 57%
    04:00 -7°C° 0.1 mm 2 mps 472 mmHg 62%
    05:00 -7°C° 0.1 mm 2 mps 472 mmHg 67%
    06:00 -7°C° 0.1 mm 2 mps 472 mmHg 68%
    07:00 -7°C° 0.1 mm 2 mps 473 mmHg 68%
    08:00 -7°C° 0.1 mm 2 mps 473 mmHg 69%
    09:00 -6°C° 0 mm 2 mps 473 mmHg 66%
    10:00 -5°C° 0 mm 2 mps 474 mmHg 63%
    11:00 -6°C° 0 mm 3 mps 474 mmHg 60%
    12:00 -5°C° 0 mm 3 mps 474 mmHg 59%
    13:00 -5°C° 0 mm 3 mps 474 mmHg 58%
    14:00 -5°C° 0 mm 3 mps 474 mmHg 58%
    15:00 -5°C° 0 mm 3 mps 473 mmHg 61%
    16:00 -5°C° 0 mm 2 mps 473 mmHg 64%
    17:00 -6°C° 0 mm 2 mps 472 mmHg 67%
    18:00 -7°C° 0 mm 2 mps 472 mmHg 67%
    19:00 -8°C° 0 mm 3 mps 472 mmHg 67%
    20:00 -9°C° 0 mm 3 mps 472 mmHg 67%
    21:00 -9°C° 0 mm 3 mps 472 mmHg 67%
    22:00 -9°C° 0 mm 3 mps 472 mmHg 66%
    23:00 -9°C° 0 mm 3 mps 473 mmHg 66%
    Show more